[Iaude] MPEC P57: 2024 NZ3 [a=3.20,e=0.62,i=30.9,H=19.12]

mpec at cfa.harvard.edu mpec at cfa.harvard.edu
Sun Aug 4 10:40:31 EDT 2024


M.P.E.C. 2024-P57                                Issued 2024 August 4, 14:39 UT

     The Minor Planet Electronic Circulars contain information on unusual
         minor planets, routine data on comets and natural satellites,
         and occasional editorial announcements.  They are published
    on behalf of Division F of the International Astronomical Union by the
          Minor Planet Center, Smithsonian Astrophysical Observatory,
                          Cambridge, MA 02138, U.S.A.
			  
             Prepared using the Tamkin Foundation Computer Network

                              MPC at CFA.HARVARD.EDU
            URL https://www.minorplanetcenter.net/    ISSN 1523-6714

                                    2024 NZ3                                    


                           Revision to MPEC 2024-O60                            

Additional Observations:
     K24N03Z  C2018 01 13.53646510 22 40.067+07 05 13.72         22.45GVEP057F51
     K24N03Z  C2018 01 13.54833410 22 39.545+07 05 09.66         23.43GVEP057F51
     K24N03Z &C2018 02 05.28967109 58 59.74 +04 55 42.8                WEP057W84
     K24N03Z &C2018 02 08.24580909 54 47.96 +04 40 22.6                WEP057W84
     K24N03Z  C2018 02 11.44225509 50 02.351+04 24 07.20         22.32GVEP057F51
     K24N03Z  C2018 02 11.45434409 50 01.222+04 24 03.65         22.24GVEP057F51
     K24N03Z  C2018 02 11.46640509 50 00.097+04 23 59.91         22.42GVEP057F51
     K24N03Z  C2018 02 11.47849909 49 58.976+04 23 56.32         22.67GVEP057F51
     K24N03Z &C2018 02 25.26117409 27 53.48 +03 19 01.6                WEP057W84
     K24N03Z &C2024 01 12.31124412 28 09.24 -23 28 54.5                WEP057W84
     K24N03Z &C2024 01 15.27817612 31 32.57 -24 57 53.8                WEP057W84

Observer details:
F51 Pan-STARRS 1, Haleakala.  Observers J. Herman, T. Lowe, P. Minguez, A.
    Schultz, I. Smith.  Measurers K. Chambers, T. de Boer, J. Fairlamb, H.
    Gao, M. Huber, C.-C. Lin, E. Magnier, Y. Ramanjooloo, R. Wainscoat, R.
    Weryk.  1.8-m Ritchey-Chretien + CCD.
W84 Cerro Tololo-DECam.  Observers T. Meier, M. Pereira, S. Juneau.  Measurer
    S. Deen.  4.0-m reflector + CCD.

Orbital elements:
2024 NZ3                                                 Earth MOID = 0.3759 AU
Epoch 2024 Oct. 17.0 TT = JDT 2460600.5                 Veres                   
M  24.58386              (2000.0)            P               Q                  
n   0.17230523     Peri.  300.28728     -0.12881663     +0.92905664             
a   3.1984316      Node   317.50027     -0.63758073     -0.34543276             
e   0.6208426      Incl.   30.88455     -0.75953742     +0.13240075             
P   5.72           H   19.12          G   0.15           U   1                  
Residuals in seconds of arc
180113 F51  0.1-  0.1-    240726 W68  0.4+  0.5-    240731 U52  1.1+  0.3+
180113 F51  0.4-  0.2+    240726 W68  0.4+  0.4-    240731 M22  0.0   0.2-
180205 W84  0.1+  0.1+    240726 Q06  0.3-  1.6+    240731 M22  0.4-  0.8-
180208 W84  0.4+  0.0     240726 Q06  1.0+  0.0     240731 M22  0.1-  0.4-
180211 F51  0.0   0.0     240726 Q06  0.5+  0.7+    240731 M22  0.2+  0.1-
180211 F51  0.0   0.0     240727 X09  0.2+  0.7+    240801 M22  0.2-  0.6-
180211 F51  0.1+  0.1-    240727 X09  0.1-  0.0     240801 M22  0.1-  0.0
180211 F51  0.2+  0.1-    240727 W68  0.2+  0.1-    240801 M22  0.2+  0.5+
180225 W84  0.1-  0.1+    240727 W68  0.2+  0.5-    240801 M22  0.3-  0.2-
240112 W84  0.1-  0.1+    240727 W68  0.1+  1.2-    240802 U52  0.6-  0.5-
240115 W84  0.1-  0.0     240727 W68  0.0   0.3+    240802 U52  0.3+  0.2+
240715 W68  0.5+  0.2-    240727 F51  0.0   0.0     240802 U52  0.7+  0.4-
240715 W68  0.5-  0.2-    240727 F51  0.0   0.1-    240802 E62  0.1+  0.0
240715 W68  0.5-  0.4+    240727 F51  0.1-  0.1+    240802 E62  0.1-  0.1-
240715 W68  0.3-  0.3+    240729 U52  0.8+  1.8-    240802 E62  0.0   0.1-
240715 X09  0.2-  0.3-    240729 U52  0.5-  0.3+    240803 F52  0.1-  0.1+
240715 X09  0.0   0.5+    240729 U52  1.1-  1.0+    240803 F52  0.0   0.0
240726 W68  0.0   0.6+    240731 U52  0.5+  0.9+    240803 F52  0.0   0.0
240726 W68  0.2+  0.5-    240731 U52  0.2-  0.4+

Ephemeris:
2024 NZ3                 a,e,i = 3.20, 0.62, 31                  q = 1.2127
Date    TT    R. A. (2000) Decl.     Delta      r    Elong.  Phase     V
2024 07 05    23 38 47.8 -45 09 28   0.4531  1.3011   119.5    42.9    19.6
...
2024 07 20    22 39 15.9 -33 15 18   0.4232  1.3752   142.2    26.9    19.2
...
2024 07 28    22 07 35.0 -25 44 25   0.4313  1.4213   156.4    16.6    18.9
...
2024 08 03    21 46 05.1 -20 08 42   0.4513  1.4582   167.2     8.9    18.8
2024 08 04    21 42 45.9 -19 14 50   0.4558  1.4646   168.9     7.6    18.8
2024 08 05    21 39 31.7 -18 21 48   0.4607  1.4709   170.7     6.4    18.8
...
2024 08 11    21 21 58.3 -13 25 09   0.4968  1.5101   178.1     1.3    18.7
...
2024 08 19    21 03 42.4 -07 57 57   0.5621  1.5646   166.8     8.5    19.4
...
2024 09 03    20 43 50.2 -01 08 27   0.7272  1.6716   148.3    18.5    20.5

A. U. Tomatic                (C) Copyright 2024 MPC           M.P.E.C. 2024-P57





More information about the Iaude mailing list